Home > Weather > Kapurthala > Past weeks

Flag for India Past Weather in Kapurthala, Punjab, India — Yesterday and Last 2 Weeks

Now
90 °F

Scattered clouds.


Feels Like: 108 °F
Forecast: 79 / 96 °F
Wind: No wind

Location: Amritsar Airport

Current Time: Jul 28, 2016 at 6:00:18 PM

Latest Report: Jul 28, 2016 at 5:30 PM


Visibility: 3 mi

Pressure: 29.56 "Hg

Humidity: 75%

Dew Point: 81 °F

Location of KapurthalaLocation

Past Weather in Kapurthala — Graph

°F

Kapurthala Temperature Yesterday

Maximum temperature yesterday: 86 °F (at 12:00 AM)
Minimum temperature yesterday: 79 °F (at 6:00 PM)
Average temperature yesterday: 81 °F

High & Low Weather Summary for the Past Weeks

 TemperatureHumidityPressure
High99 °F (Jul 21, 1:00 PM)100% (Jul 14, 12:30 AM)29.74 "Hg (Jul 14, 12:30 AM)
Low73 °F (Jul 17, 5:00 AM)50% (Jul 21, 3:30 PM)29.42 "Hg (Jul 14, 5:30 PM)
Average87 °F89%29.56 "Hg
* Reported Jul 13 4:30 PM — Jul 28 4:30 PM, Kapurthala, Weather by CustomWeather, © 2016

Note: Actual official high and low records may vary slightly from our data, if they occured in-between our weather recording intervals... More about our weather records

Advertising

Kapurthala Weather History for the Previous 24 Hours

Scroll right to see more
 ConditionsComfort  
Time TempWeatherWind HumidityBarometerVisibility
4:30 PM
Thu, Jul 28
84 °FDrizzle. Broken clouds.3 mph89%29.62 "Hg2 mi
4:00 PM84 °FLight rain. Broken clouds.5 mph100%29.59 "Hg2 mi
3:30 PM84 °FFog.12 mph94%29.62 "Hg2 mi
3:00 PM90 °FScattered clouds.No wind75%29.62 "Hg3 mi
2:30 PM91 °FScattered clouds.2 mph71%29.62 "Hg3 mi
2:00 PM91 °FScattered clouds.5 mph71%29.65 "Hg2 mi
1:30 PM91 °FScattered clouds.7 mph71%29.65 "Hg2 mi
1:00 PM90 °FFog.7 mph75%29.65 "Hg2 mi
12:30 PM90 °FFog.6 mph75%29.68 "Hg2 mi
12:00 PM90 °FFog.2 mph79%29.68 "Hg2 mi
11:30 AM90 °FFog.2 mph84%29.71 "Hg2 mi
11:00 AM88 °FFog.2 mph89%29.71 "Hg2 mi
10:30 AM86 °FFog.2 mph94%29.71 "Hg3 mi
10:00 AM86 °FFog.2 mph94%29.71 "Hg3 mi
9:30 AM84 °FFog.2 mph100%29.71 "Hg3 mi
9:00 AM84 °FFog.2 mph100%29.71 "Hg2 mi
8:00 AM81 °FFog.No wind100%29.71 "Hg2 mi
7:30 AM79 °FFog.2 mph100%29.68 "Hg2 mi
7:00 AM79 °FFog.2 mph100%29.68 "Hg2 mi
6:30 AM79 °FFog.6 mph100%29.68 "Hg2 mi
5:00 AM77 °FFog.2 mph100%29.68 "Hg2 mi
4:30 AM77 °FFog.2 mph100%29.68 "Hg2 mi
4:00 AM77 °FFog.1 mph100%29.68 "Hg2 mi
3:30 AM79 °FFog.2 mph100%29.68 "Hg2 mi
2:30 AM79 °FFog.2 mph100%29.71 "Hg2 mi
2:00 AM79 °FFog.2 mph100%29.71 "Hg2 mi
1:30 AM79 °FFog.5 mph100%29.71 "Hg2 mi
1:00 AM77 °FFog.3 mph100%29.71 "Hg2 mi
12:30 AM79 °FFog.3 mph100%29.71 "Hg2 mi
12:00 AM79 °FFog.2 mph100%29.71 "Hg2 mi
11:30 PM
Wed, Jul 27
79 °FFog.2 mph100%29.71 "Hg2 mi
11:00 PM79 °FFog.2 mph100%29.71 "Hg2 mi
10:30 PM79 °FFog.2 mph100%29.68 "Hg2 mi
10:00 PM79 °FFog.1 mph100%29.71 "Hg2 mi
9:30 PM79 °FFog.No wind100%29.68 "Hg2 mi
9:00 PM79 °FFog.3 mph100%29.68 "Hg2 mi
8:30 PM79 °FFog.2 mph100%29.68 "Hg2 mi
8:00 PM79 °FFog.No wind100%29.65 "Hg3 mi
7:30 PM79 °FFog.3 mph100%29.65 "Hg3 mi
7:00 PM79 °FFog.7 mph100%29.65 "Hg3 mi
6:30 PM79 °FFog.9 mph100%29.68 "Hg3 mi
6:00 PM79 °FFog.8 mph100%29.68 "Hg3 mi
Weather by CustomWeather, © 2016

See weather overviewHow to use our weather pages